Weather History for Spirit of St Louis, MO

Change the Weather History Date:

Thursday, November 15, 2012

  Actual Average Record
Temperature  
Mean Temperature 40 °F -  
Max Temperature 54 °F 53 °F 71 °F (2001)
Min Temperature 25 °F 33 °F 23 °F (2000)
Degree Days  
Heating Degree Days 26    
Moisture  
Dew Point 27 °F    
Average Humidity 70    
Maximum Humidity 89    
Minimum Humidity 33    
Precipitation  
Precipitation 0.00 in - - ()
Sea Level Pressure  
Sea Level Pressure 30.38 in    
Wind  
Wind Speed 0 mph (North)    
Max Wind Speed 0 mph    
Max Gust Speed -    
Visibility 10 miles    
Events      
Averages and records for this station are not official NWS values.
T = Trace of Precipitation, MM = Missing Value Source: NWS Daily Summary

Daily Weather History Graph

Daily Weather History Graph

Search for Another Location

Airport:

Trip Planner

Search our weather history database for the weather conditions in past years. The results will help you decide how hot, cold, wet, or windy it might be!

Date:

Astronomy

Nov. 15, 2012 Rise Set
Actual Time 6:45 AM CST 4:48 PM CST
Civil Twilight 6:16 AM CST 5:17 PM CST
Nautical Twilight 5:44 AM CST 5:49 PM CST
Astronomical Twilight 5:13 AM CST 6:20 PM CST
Moon 8:40 AM CST (11/15) 6:41 PM CST (11/15)
Length of Visible Light 11h 00m
Length of Day
10h 03m
Waxing Crescent, 5% of the Moon is Illuminated
Nov 15
Waxing Crescent
Nov 20
First Quarter
Nov 28
Full
Dec 6
Last Quarter
Dec 13
New

Hourly Weather History & Observations

Time (CST) Temp. Dew Point Humidity Pressure Visibility Wind Dir Wind Speed Gust Speed Precip Events Conditions
12:54 AM 27.0 °F 21.9 °F 81% 30.37 in 10.0 mi Calm Calm - N/A   Clear
1:54 AM 25.0 °F 21.9 °F 88% 30.37 in 8.0 mi Calm Calm - N/A   Clear
2:54 AM 26.1 °F 23.0 °F 88% 30.36 in 10.0 mi Calm Calm - N/A   Clear
3:54 AM 25.0 °F 21.0 °F 85% 30.37 in 10.0 mi Calm Calm - N/A   Clear
4:54 AM 25.0 °F 21.9 °F 88% 30.38 in 10.0 mi Calm Calm - N/A   Clear
5:54 AM 26.6 °F 23.0 °F 86% 30.35 in 9.0 mi Calm Calm - N/A   Clear
6:54 AM 27.0 °F 23.0 °F 85% 30.39 in 8.0 mi Calm Calm - N/A   Clear
7:54 AM 28.9 °F 26.1 °F 89% 30.41 in 8.0 mi Calm Calm - N/A   Mostly Cloudy
8:54 AM 32.0 °F 28.0 °F 85% 30.41 in 8.0 mi Calm Calm - N/A   Mostly Cloudy
9:54 AM 39.9 °F 32.0 °F 73% 30.42 in 10.0 mi Calm Calm - N/A   Clear
10:54 AM 46.9 °F 30.9 °F 54% 30.40 in 10.0 mi Calm Calm - N/A   Mostly Cloudy
11:54 AM 51.1 °F 28.0 °F 41% 30.38 in 10.0 mi Calm Calm - N/A   Mostly Cloudy
12:54 PM 52.0 °F 27.0 °F 38% 30.36 in 10.0 mi Calm Calm - N/A   Scattered Clouds
1:54 PM 54.0 °F 26.1 °F 34% 30.35 in 10.0 mi Calm Calm - N/A   Mostly Cloudy
2:54 PM 54.0 °F 25.0 °F 33% 30.34 in 10.0 mi Calm Calm - N/A   Mostly Cloudy
3:54 PM 52.0 °F 28.0 °F 40% 30.35 in 10.0 mi Calm Calm - N/A   Mostly Cloudy
4:54 PM 46.0 °F 32.0 °F 58% 30.35 in 10.0 mi Calm Calm - N/A   Mostly Cloudy
5:54 PM 43.0 °F 32.0 °F 65% 30.36 in 10.0 mi Calm Calm - N/A   Mostly Cloudy
6:54 PM 43.0 °F 32.0 °F 65% 30.37 in 10.0 mi Calm Calm - N/A   Partly Cloudy
7:54 PM 37.9 °F 32.0 °F 79% 30.38 in 10.0 mi Calm Calm - N/A   Clear
8:54 PM 37.9 °F 30.0 °F 73% 30.38 in 10.0 mi Calm Calm - N/A   Clear
9:54 PM 36.0 °F 30.9 °F 82% 30.39 in 10.0 mi Calm Calm - N/A   Clear
10:54 PM 34.0 °F 30.0 °F 85% 30.40 in 10.0 mi Calm Calm - N/A   Clear
11:54 PM 33.1 °F 28.0 °F 82% 30.40 in 10.0 mi Calm Calm - N/A   Clear